Location: Carrer del Canonge
(41.4901°N, 2.2931°E)
Time: 17:56:22
(UTC+00:00)

SPOT 3 Rocket - Pass Details

Date: 18 June 2021
Orbit: 779 x 794 km, 98.7° (Epoch: 26 July)

Event Time Altitude Azimuth Distance (km) Brightness Sun altitude
Exits shadow 20:30:14 - 161° (SSE) 2,392 5.5 -10.0°
Reaches altitude 10° 20:30:23 10° 161° (SSE) 2,332 5.5 -10.0°
Maximum altitude 20:35:32 82° 75° (ENE) 798 3.5 -10.7°
Drops below altitude 10° 20:40:45 10° 348° (NNW) 2,358 7.0 -11.4°
Sets 20:43:05 0° 348° (NNW) 3,294 7.9 -11.7°
